RH
55 56 57 60 64 70 74 76 77 76 76 78 77 75 74 73 69 66 64 63 62 61 60 59 58 57 56 57 58 60 61 62 61 61 61 61 62 62 62 61 61 61 61 62 63 63 63 62 62 61 61 60
54 56 58 60 62 68 74 76 78 77 77 79 79 77 75 71 68 65 64 62 61 61 60 61 60 59 58 58 59 59 60 61 60 60 60 59 60 60 60 59 59 60 61 62 63 63 63 63 62 61 60 60
61 61 64 66 66 70 74 77 78 78 79 81 79 76 72 69 66 64 63 62 61 61 61 61 62 62 61 60 59 59 59 60 59 60 60 60 60 59 59 57 57 58 59 60 61 62 62 63 62 61 61 61
71 73 74 73 72 71 72 75 77 78 79 78 75 72 69 67 65 64 64 64 63 63 63 62 63 64 63 62 61 60 60 60 60 60 60 60 59 59 58 57 57 57 58 58 59 61 62 63 63 63 63 62
69 77 81 81 78 75 74 76 78 77 77 75 72 69 68 66 66 66 66 66 65 64 64 63 64 64 63 62 61 60 60 60 60 59 59 59 58 57 57 57 57 58 58 58 59 61 62 63 64 64 64 64
59 67 75 79 80 80 80 80 79 78 77 75 72 70 69 68 68 68 68 66 64 63 62 63 63 62 61 60 60 59 59 59 58 58 58 57 56 57 57 56 57 57 58 58 58 59 60 62 63 64 64 64
52 58 64 68 73 77 80 82 81 79 78 75 72 70 69 69 69 68 67 65 63 63 62 63 62 61 60 60 60 60 59 59 58 57 56 56 56 56 55 55 55 56 57 57 57 57 58 59 60 61 62 63
50 54 58 62 65 69 73 76 77 78 77 75 72 70 68 68 68 67 66 65 64 62 62 62 61 60 59 58 58 58 57 56 56 55 54 54 54 54 54 54 54 55 55 56 56 57 57 58 58 59 60 60
50 52 57 60 61 63 66 69 71 71 71 71 69 67 66 66 66 65 64 63 62 61 59 58 57 56 55 55 54 54 53 53 53 52 51 52 52 52 52 52 52 53 53 54 55 56 57 58 58 58 58 59
47 49 53 56 57 59 63 66 67 68 68 67 66 65 65 65 64 63 61 60 57 56 55 54 54 53 53 52 51 50 49 48 47 45 44 43 44 44 45 45 45 46 48 49 51 53 55 56 58 58 59 59
51 50 53 57 60 63 65 67 68 69 69 68 68 68 67 66 64 62 60 58 56 55 55 54 52 50 47 44 41 38 36 33 32 30 28 27 26 26 27 29 30 32 35 37 41 44 47 50 53 55 56 58
64 61 61 64 67 70 72 72 73 74 73 71 70 70 68 66 64 62 60 58 55 52 49 46 42 38 35 32 29 27 25 24 23 22 21 20 20 20 20 20 21 23 25 28 30 33 35 38 42 45 48 52
78 76 73 73 76 78 79 79 79 79 77 75 71 69 67 65 61 58 54 50 45 41 37 34 31 29 27 26 25 24 23 22 21 20 19 18 18 18 19 19 20 21 22 23 24 25 27 29 32 36 40 46
87 87 85 82 80 82 83 83 82 80 77 73 69 65 61 56 52 47 42 38 35 32 29 28 27 26 26 25 25 24 23 22 21 20 20 19 19 18 18 19 20 20 20 21 22 23 25 28 30 32 36 41
93 92 90 87 83 82 83 83 81 77 72 66 60 54 49 44 40 36 33 30 29 28 27 26 26 26 25 25 24 24 23 23 22 22 21 21 21 21 20 20 20 21 21 22 23 25 27 30 31 32 34 37
97 95 93 90 87 84 83 81 78 73 66 59 52 45 39 34 30 28 27 25 25 25 25 25 24 24 23 23 22 22 22 21 21 20 20 20 20 20 20 20 20 21 22 23 25 26 27 30 32 33 34 37
95 97 95 92 89 85 82 79 74 68 61 53 45 38 32 28 25 24 23 22 22 22 23 23 22 22 21 21 20 20 20 19 18 17 16 16 16 16 16 16 18 20 22 23 25 26 27 29 31 33 35 38
85 89 92 90 87 83 77 72 66 59 52 44 36 30 26 23 22 21 20 21 20 21 21 20 20 20 19 19 18 17 17 16 15 14 13 13 12 12 12 13 15 18 21 23 26 27 28 29 31 34 36 39
84 88 88 84 80 77 69 61 56 49 42 36 30 25 23 21 20 19 19 19 18 18 18 18 18 17 17 16 16 15 15 15 15 14 14 13 12 12 12 14 16 18 21 24 27 28 30 31 32 35 38 40
90 96 92 81 70 65 61 53 45 41 37 31 27 24 22 20 19 19 19 18 18 18 18 18 18 18 17 17 17 17 17 17 17 17 17 17 17 16 16 17 18 21 23 26 28 29 31 34 36 39 42 44
88 93 96 88 69 52 46 44 38 33 31 28 25 24 22 20 19 19 19 19 18 18 19 19 19 20 19 19 19 20 20 20 21 21 22 22 22 21 20 20 21 24 27 30 33 34 37 39 40 42 44 45
78 82 88 92 83 59 38 32 31 28 25 24 24 23 21 19 18 18 18 18 19 19 20 20 21 21 21 22 22 22 23 23 24 24 24 24 24 23 23 24 26 29 32 35 38 41 43 45 46 47 46 46
63 72 75 81 87 79 56 35 26 25 24 22 21 21 20 18 17 17 17 17 18 19 20 21 22 22 23 23 23 24 24 24 24 24 24 25 25 26 27 28 31 33 35 37 40 43 48 52 53 53 53 52
43 58 67 70 74 79 76 57 34 24 21 20 19 18 18 17 16 16 16 16 17 19 20 22 23 23 24 25 25 25 25 26 26 26 27 28 29 30 31 33 36 39 40 42 44 49 55 58 59 59 60 60
31 42 52 59 61 63 70 69 54 36 25 21 19 17 17 16 16 16 16 17 18 20 22 24 25 26 28 28 28 29 29 29 30 30 31 32 33 34 35 38 41 44 45 46 49 53 56 58 60 62 63 64
31 35 40 45 49 50 53 59 59 47 32 25 21 18 18 17 17 18 18 20 21 23 25 27 29 31 32 32 33 33 33 33 33 34 34 34 35 35 36 38 41 43 44 44 45 48 49 50 53 54 56 57
29 33 37 38 39 41 42 45 48 44 37 31 26 22 21 21 21 22 23 24 26 28 30 32 34 35 36 36 36 36 36 36 36 37 37 37 37 37 36 37 38 39 39 38 38 40 40 41 41 41 41 41
25 30 34 37 36 36 36 37 37 37 35 32 28 26 25 25 26 26 27 29 30 32 34 36 38 39 39 40 40 40 40 40 40 40 40 39 39 39 38 37 37 37 37 37 37 37 36 36 36 35 33 31
25 29 33 36 37 37 37 37 36 36 35 35 34 33 33 33 33 33 34 35 36 38 40 42 42 43 44 44 44 44 44 44 44 44 43 43 43 42 42 41 41 41 41 41 41 40 40 40 39 38 37 35
28 31 35 38 40 41 42 44 44 45 45 45 45 45 44 43 43 43 44 45 45 46 47 47 48 48 49 49 49 49 49 49 49 49 49 49 49 49 49 48 48 48 49 49 48 48 47 47 47 46 46 45
32 35 38 41 43 44 46 48 50 52 52 52 52 52 51 50 49 50 51 52 52 53 53 53 53 53 54 54 54 54 55 55 55 55 56 55 56 56 56 55 54 55 55 55 55 55 55 55 55 54 54 54
Wind_Speed
46 46 46 45 45 44 43 44 44 45 45 45 45 45 46 46 47 47 47 48 47 47 47 47 47 46 46 45 45 44 44 44 44 44 44 44 43 43 43 43 43 42 42 42 41 41 41 41 41 41 41 41
44 44 44 45 44 44 43 44 44 45 45 45 45 46 46 47 47 48 48 48 47 47 47 47 47 47 46 46 46 45 45 44 44 44 44 44 44 44 44 44 44 43 43 42 42 42 42 42 42 42 42 42
42 42 43 43 44 43 44 44 44 45 45 45 45 46 47 47 48 48 48 47 47 47 47 47 46 46 46 46 46 46 45 45 45 44 44 44 44 44 44 44 44 44 43 43 43 42 42 42 42 42 42 42
41 41 41 42 43 44 44 44 44 45 45 46 47 47 47 48 48 48 47 47 47 47 47 47 46 46 46 46 46 46 45 45 45 44 44 44 44 44 44 44 44 44 44 43 43 43 43 43 43 43 43 43
42 41 41 42 43 44 45 45 45 46 46 47 48 48 48 48 48 47 47 47 48 48 47 47 46 46 46 46 46 45 45 45 45 45 44 44 44 44 44 44 44 44 44 44 44 44 44 44 44 44 44 44
44 43 43 43 44 45 46 46 47 47 48 48 49 49 49 49 49 48 48 49 49 48 48 47 47 47 46 46 46 46 46 46 45 45 45 45 45 45 45 45 45 45 45 45 45 45 45 45 45 45 45 45
45 45 45 45 46 46 47 48 48 49 49 49 50 50 50 49 49 49 49 50 49 49 48 48 48 47 47 47 47 47 46 46 46 46 46 46 46 46 47 47 46 47 47 47 47 47 47 47 47 47 47 47
46 46 46 46 47 47 48 48 49 49 50 50 50 51 51 50 50 50 50 50 50 49 49 49 48 48 48 48 48 48 48 48 48 48 48 47 48 48 48 48 48 48 48 48 48 48 49 49 49 49 49 49
47 47 46 47 47 48 48 49 50 50 50 51 51 51 51 51 50 50 50 50 50 50 50 49 49 50 49 49 49 49 48 48 49 49 48 48 49 49 49 49 49 49 49 49 49 49 49 49 50 50 50 50
49 49 48 48 48 49 49 49 50 50 51 51 51 51 51 51 51 51 51 51 51 51 50 50 50 50 50 49 49 49 49 49 49 49 49 49 49 49 49 49 49 49 49 49 49 49 49 49 50 50 50 51
50 50 50 49 49 49 49 49 50 50 50 50 50 50 50 50 50 51 51 51 51 51 50 50 50 50 50 50 50 50 50 49 49 50 50 50 50 50 50 50 49 49 49 49 49 49 49 49 49 50 50 51
49 50 50 50 49 49 49 49 49 50 50 50 50 50 50 50 50 50 51 51 51 51 50 50 50 50 50 50 50 50 50 50 50 50 50 50 51 51 51 50 50 50 50 50 49 49 49 50 50 50 51 51
49 50 51 51 50 49 49 49 49 49 49 50 50 50 50 50 50 51 51 51 51 51 51 51 51 51 50 50 50 51 51 51 51 51 51 51 51 51 51 51 51 51 50 50 50 50 51 51 51 51 51 52
49 50 50 51 51 50 50 49 49 49 49 49 50 50 50 51 51 51 51 51 51 51 51 51 51 51 51 51 51 51 51 50 50 50 50 50 50 51 51 51 51 51 51 51 51 52 52 52 52 52 52 52
49 50 51 51 52 52 51 51 50 50 50 50 50 50 50 51 51 51 51 51 51 51 51 51 51 51 51 51 51 51 51 51 51 51 51 51 51 51 51 52 52 52 53 53 53 53 53 53 53 53 53 53
50 50 51 52 52 52 52 52 52 52 51 51 51 51 51 51 51 51 51 51 51 51 51 51 51 52 52 52 53 53 53 53 53 53 54 54 54 54 54 54 54 54 55 55 55 55 55 55 55 55 55 55
51 51 52 52 53 53 53 54 54 54 53 53 52 52 51 51 52 52 52 52 52 52 52 52 53 54 54 54 54 54 55 55 55 55 56 56 56 56 56 57 57 57 57 56 56 56 56 56 56 56 56 56
52 53 53 53 54 54 55 55 55 55 54 54 53 52 52 52 53 53 53 53 53 54 54 55 55 56 56 56 56 56 56 56 56 56 57 57 57 57 57 58 58 58 58 58 58 58 57 57 57 57 57 57
53 53 54 54 54 55 55 55 56 56 55 55 54 53 53 54 54 54 55 55 55 55 56 56 57 57 57 57 57 57 57 57 58 58 58 57 57 58 58 58 58 58 58 58 58 58 58 58 58 58 58 58
53 54 54 54 55 56 56 56 56 57 57 56 55 55 55 55 55 55 55 56 56 56 57 57 58 58 58 58 58 58 58 58 59 59 58 58 58 58 58 59 59 59 59 59 59 59 59 59 59 59 59 59
54 54 55 55 55 56 57 57 57 57 58 57 57 56 56 56 56 56 56 57 57 58 58 59 59 59 59 59 59 59 60 60 60 60 60 60 60 60 60 60 61 61 61 61 61 60 60 61 60 61 61 61
55 56 56 56 56 57 58 58 59 59 59 59 59 58 58 58 58 58 58 59 59 59 60 60 61 61 61 61 61 61 61 62 62 62 62 62 62 62 62 62 63 63 62 62 62 62 62 62 62 62 63 63
57 58 59 59 58 58 58 59 60 61 61 61 61 61 61 60 61 61 61 61 61 61 62 62 63 63 63 63 63 63 64 64 64 65 65 65 65 64 64 64 64 65 65 64 64 64 64 64 64 64 64 64
57 59 60 61 61 61 60 60 61 62 62 63 63 63 63 63 63 63 64 64 64 64 64 64 65 65 65 65 65 65 66 66 66 66 66 66 66 66 65 65 66 66 66 66 66 65 65 65 65 65 66 66
55 57 58 60 61 62 62 62 62 63 64 64 65 65 65 65 65 66 66 66 66 66 65 66 66 66 66 66 66 67 67 67 67 67 67 67 66 66 66 66 66 67 67 67 67 67 67 67 66 67 67 67
55 55 56 58 59 61 62 63 63 64 65 65 66 66 66 67 67 67 67 67 67 67 67 67 67 67 67 67 67 67 67 67 67 67 67 68 68 68 68 68 68 68 69 69 69 69 69 68 68 68 68 68
56 56 56 57 58 60 61 63 64 64 65 66 66 66 67 67 67 67 67 67 67 67 67 67 67 68 68 68 68 68 68 68 69 69 69 70 70 70 70 70 71 71 72 72 72 72 71 70 70 70 70 70
57 57 57 58 59 60 61 62 63 65 66 66 66 67 67 67 68 68 68 68 68 68 68 68 68 69 69 69 69 69 70 70 71 71 72 72 72 73 73 73 73 74 74 74 74 74 73 73 72 72 71 71
59 59 59 60 60 60 61 62 63 64 65 66 66 66 67 67 68 68 69 69 69 70 70 70 70 70 71 71 71 71 72 72 73 73 74 74 74 75 75 75 75 75 76 76 76 76 75 75 75 74 73 73
61 61 61 61 61 61 62 62 63 64 65 65 66 66 67 68 68 69 69 70 70 71 71 72 72 72 73 73 73 73 73 74 74 75 75 76 76 76 76 76 76 76 77 77 78 78 77 77 77 76 76 76
61 61 61 61 62 62 63 63 64 64 65 66 67 67 68 68 69 70 70 71 71 72 72 73 73 74 74 75 75 75 75 75 76 76 76 77 77 77 77 77 77 77 78 78 78 78 79 78 78 78 78 78
Wind_Direction
258 258 259 260 260 260 260 261 262 262 263 263 264 264 264 264 265 266 266 267 268 268 269 270 270 271 271 272 272 272 272 272 272 272 272 272 273 273 273 274 274 274 274 274 274 274 274 274 274 274 274 274
257 258 259 259 260 260 260 260 260 261 261 262 262 262 262 263 264 264 265 266 267 268 268 268 269 269 270 270 271 271 271 271 271 271 271 272 272 272 273 273 273 273 273 273 273 273 272 272 272 271 271 271
257 258 258 259 260 260 260 260 260 260 260 260 261 261 261 262 263 263 264 265 266 266 266 267 267 268 269 269 269 270 270 270 271 271 271 271 271 272 272 272 272 273 273 272 272 272 271 271 270 270 270 269
258 258 258 258 259 259 260 260 260 260 260 260 261 261 262 263 263 264 265 265 265 265 266 266 267 267 267 267 268 268 269 269 270 270 270 270 270 271 271 272 272 272 272 271 271 270 270 270 269 269 269 268
258 258 258 258 258 259 260 260 260 260 260 261 261 262 263 263 264 265 265 265 265 266 266 266 266 266 266 266 267 267 267 267 268 268 269 269 269 270 270 270 271 271 270 270 270 270 269 269 269 268 268 268
258 258 258 258 258 258 259 259 260 260 260 261 261 262 263 263 264 264 265 265 265 266 266 266 266 266 267 267 267 267 267 267 267 268 268 269 269 270 270 270 270 270 270 270 270 270 269 269 269 268 268 267
258 258 258 258 258 258 258 258 259 259 260 261 261 262 263 263 264 264 264 265 266 266 266 267 267 267 267 267 267 267 267 268 268 268 269 269 269 269 269 269 269 269 270 270 270 269 269 269 269 269 268 268
259 258 258 258 257 257 257 257 258 258 259 260 261 262 262 263 263 264 264 265 266 266 266 267 267 267 267 267 267 268 268 269 269 269 269 270 270 269 270 269 269 269 269 269 269 269 269 269 269 269 269 268
259 258 257 257 257 257 257 257 258 258 259 260 261 262 262 263 263 263 264 265 265 266 266 266 267 267 267 268 268 268 269 269 270 270 270 270 270 269 269 269 269 269 269 269 268 268 268 269 268 268 268 268
261 261 259 259 259 259 258 258 259 260 260 261 262 262 263 263 263 264 264 265 266 266 266 267 267 268 268 269 269 269 269 270 270 270 270 270 270 269 269 269 268 268 268 268 268 268 268 268 268 268 268 267
264 264 263 263 262 261 261 261 261 261 262 262 262 263 264 264 264 265 265 266 267 267 268 268 269 269 269 270 270 271 271 271 271 271 271 270 270 270 270 269 269 269 268 268 268 268 267 267 267 267 267 267
266 266 266 266 264 263 263 263 263 263 263 264 264 265 265 266 267 267 268 269 269 270 270 270 271 271 271 272 272 272 272 272 272 272 271 271 271 271 270 270 270 269 269 269 269 268 268 267 267 267 267 266
266 266 267 266 266 265 264 264 264 264 265 266 266 267 268 268 269 269 270 271 271 271 272 272 272 272 273 273 272 272 272 272 272 272 272 271 271 271 271 271 270 270 270 269 269 269 268 267 267 267 266 266
264 265 266 266 266 266 266 265 265 266 266 267 268 269 269 270 270 271 271 272 272 273 273 273 273 273 273 273 272 272 272 272 272 272 272 272 272 272 272 271 271 271 270 270 269 268 268 267 267 267 266 266
264 264 265 265 266 266 266 266 266 267 267 268 268 269 270 270 271 271 271 272 272 272 273 273 272 272 272 272 272 272 273 273 273 273 273 273 273 273 273 273 273 272 271 270 269 269 268 268 267 267 267 266
263 264 264 264 265 265 266 266 266 266 267 267 268 268 269 270 270 270 270 271 271 271 271 272 272 272 272 272 272 272 273 273 273 274 274 274 274 274 274 274 273 273 272 271 270 270 269 269 268 268 268 267
261 262 263 264 264 265 265 265 265 266 266 266 267 267 268 269 269 269 269 270 270 270 270 270 271 271 271 271 272 272 273 273 274 274 274 274 274 274 274 273 273 273 272 272 271 271 270 270 270 269 269 268
262 262 263 263 264 264 265 265 265 265 265 265 265 266 266 267 268 269 269 269 269 269 269 270 270 270 271 271 272 272 273 273 273 274 274 274 274 274 273 273 273 273 273 272 272 271 271 271 270 270 269 269
264 264 264 264 264 264 264 264 264 264 264 264 264 264 265 266 267 268 268 268 269 269 270 270 270 271 271 271 272 272 272 273 273 273 273 273 274 274 273 273 273 273 273 272 272 271 271 271 270 270 270 269
264 264 265 266 266 265 264 263 263 263 263 263 263 264 265 266 266 267 268 269 269 269 270 270 271 271 272 272 272 272 272 272 273 273 273 273 273 273 273 273 272 272 272 272 271 271 271 270 270 270 269 269
264 263 264 265 265 265 264 264 263 263 263 264 264 265 265 266 267 267 268 269 269 269 270 270 270 271 271 271 271 271 271 271 272 272 272 272 271 271 271 271 271 271 271 271 271 271 270 270 270 269 269 268
263 262 262 262 263 263 263 263 263 264 264 265 265 265 266 266 267 267 268 268 268 269 269 269 269 270 270 270 270 270 271 271 271 271 271 271 271 271 271 271 271 271 271 270 270 270 270 269 269 269 268 268
261 261 261 262 262 263 263 263 263 263 264 265 265 265 265 266 267 267 268 268 268 268 269 269 269 269 270 270 270 270 270 270 270 271 271 271 271 271 271 271 271 271 271 270 270 270 269 269 269 269 269 269
261 261 261 262 262 263 263 263 263 263 264 264 265 265 265 266 267 267 268 268 269 269 269 269 269 270 270 270 270 270 270 270 271 271 271 272 272 272 272 272 272 272 271 271 271 271 270 270 269 269 269 269
264 263 262 262 263 263 264 264 265 265 265 265 265 266 266 267 267 268 268 269 269 270 270 270 270 271 271 271 271 271 271 272 272 272 272 272 272 272 272 272 272 272 272 271 271 270 270 269 269 269 269 269
266 265 264 263 263 263 264 264 265 266 266 266 266 267 268 268 269 269 269 270 270 271 271 271 271 271 271 272 272 272 272 272 272 272 272 272 272 272 272 272 271 271 270 270 269 269 268 268 268 268 267 268
267 266 265 264 264 264 264 264 265 266 266 266 267 268 268 269 269 270 270 271 271 271 271 271 271 271 272 272 272 272 272 272 272 272 272 272 271 271 271 271 270 270 270 269 269 268 268 268 268 267 267 267
267 266 265 264 264 264 264 264 264 265 265 266 267 267 268 268 269 269 270 270 270 271 271 271 271 271 271 271 271 271 272 272 271 271 271 271 271 271 271 271 270 270 270 270 269 269 269 268 268 268 268 267
266 266 265 265 265 265 265 265 265 265 266 266 267 267 267 268 268 269 269 269 270 270 270 270 270 270 270 270 270 271 271 271 271 271 271 271 271 271 271 270 270 270 270 270 269 269 269 269 268 268 267 267
265 265 265 265 265 265 265 266 266 266 266 267 267 267 267 267 267 268 268 268 269 269 269 269 269 269 269 269 270 270 270 270 270 270 270 270 271 271 270 270 270 271 271 270 270 270 270 270 269 269 268 268
265 265 265 265 265 265 265 265 265 266 266 266 266 266 267 267 267 267 267 268 268 268 268 269 269 269 269 269 269 269 269 269 270 270 270 270 270 270 270 270 270 270 271 271 271 271 270 270 270 270 269 269